Weather Service Report


897 
ASUS43 KLOT 250212
RWRIL 

ILLINOIS REGIONAL WEATHER ROUNDUP
NATIONAL WEATHER SERVICE CHICAGO/ROMEOVILLE IL
800 PM CST FRI FEB 24 2017

NOTE: "FAIR" INDICATES FEW OR NO CLOUDS BELOW 12,000 FEET WITH NO
SIGNIFICANT WEATHER AND/OR OBSTRUCTIONS TO VISIBILITY.

* THESE STATIONS ARE NOT UNDER NWS QUALITY CONTROL. THEY ALSO MAY NOT
  REPORT WEATHER SUCH AS PRECIPITATION OR FOG.

ILZ001-002-007-009-015-016-024-250300-
NORTHWEST ILLINOIS
  
CITY           SKY/WX    TMP DP  RH WIND       PRES   REMARKS
MOLINE         LGT SNOW  34  30  85 NW8       29.65S FOG     WCI  27  
STERLING*      LGT SNOW  32  30  92 NW12      29.63R FOG     WCI  23  
$$

ILZ003-004-008-010-011-017-018-250300-
NORTH CENTRAL ILLINOIS
  
CITY           SKY/WX    TMP DP  RH WIND       PRES   REMARKS
ROCKFORD       LGT SNOW  31  28  89 N14       29.62S FOG     WCI  21  
FREEPORT*      CLOUDY    29  28  94 NW10      29.63F WCI  20          
ROCHELLE*      CLOUDY    31  30  95 N14       29.61R WCI  21          
DE KALB*       CLOUDY    32  31  96 NW8G16    29.59R WCI  24          
PERU*          CLOUDY    37  35  93 NW16      29.61R WCI  27          
$$

ILZ005-006-012>014-019>023-250300-
NORTHEAST ILLINOIS
  
CITY           SKY/WX    TMP DP  RH WIND       PRES   REMARKS
CHICAGO-OHARE  DRIZZLE   38  35  89 W12       29.55R WCI  30          
CHICAGO-MIDWAY MOCLDY    40  34  79 W10       29.56R                  
AURORA         CLOUDY    36  33  89 NW15      29.57S WCI  27          
LANSING*       DRIZZLE   41  39  93 W17G26    29.57R                  
JOLIET*        CLOUDY    41  37  87 W8        29.58R                  
WAUKEGAN       LGT SNOW  32  31  96 NW6       29.55R FOG     WCI  26  
DUPAGE AIRPORT LGT RAIN  35  31  85 NW12      29.56R WCI  27          
KANKAKEE*      CLOUDY    42  35  78 W8G17     29.60R                  
WHEELING       CLOUDY    36  33  89 NW8       29.57R WCI  30          
MORRIS*        CLOUDY    39  37  90 W10       29.58R WCI  32          
ROMEOVILLE*    CLOUDY    38  38  99 W13       29.57R WCI  30          
NORTHERLY ISL    N/A     41  36  82 W6          N/A                   
$$

LMZ740>746-250300-
SOUTHERN LAKE MICHIGAN
  
STATION/POSITION SKY/WX   TEMP    WIND        PRES    VSBY  WAVE
                          AIR SEA DIR/SP/G                  HT/PER
                          (F)     (DEG/KT/KT) (MB)    (MI)  (FT/S)
HARRISON CRIB              40     300/ 11/ 13   N/A
BURNHAM HARBOR             40     260/  6/ 15   N/A
CALUMET HARBOR             41     250/  8/ 17 1000.5R
BURNS HARBOR               36     290/  3/  5 1001.7R
MICHIGAN CITY              35     280/  9/ 10   N/A
$$

ILZ025>027-034>036-040-047-049-050-058-095>099-250300-
WEST-CENTRAL ILLINOIS
  
CITY           SKY/WX    TMP DP  RH WIND       PRES   REMARKS
QUINCY         CLOUDY    34  31  88 W15G25    29.73R WCI  24          
GALESBURG*     RAIN      35  33  94 W13       29.65R WCI  26          
MACOMB*        CLOUDY    36  33  89 W16G22    29.70R WCI  26          
JACKSONVILLE*  CLOUDY    39  34  82 W17G24    29.70R WCI  30          
PITTSFIELD*    CLOUDY    37  33  85 W22G32    29.73R WCI  26          
$$

ILZ028>032-037-038-041>044-048-051>054-059>061-250300-
CENTRAL ILLINOIS
  
CITY           SKY/WX    TMP DP  RH WIND       PRES   REMARKS
PONTIAC        MOCLDY    41  40  95 W12       29.62R                  
BLOOMINGTON    CLOUDY    41  36  82 W18       29.62R                  
DECATUR        PTCLDY    44  33  65 W15G23    29.65R                  
PEORIA         CLOUDY    39  35  86 W16       29.64R WCI  30          
LACON*         CLOUDY    38  35  90 W9G18     29.61S WCI  31          
LINCOLN*       MOCLDY    43  39  87 W6        29.65R                  
SPRINGFIELD    MOCLDY    43  35  73 W22G28    29.67R                  
TAYLORVILLE    MOCLDY    43  33  66 SW14      29.68R                  
$$

ILZ033-039-045-046-055>057-062-063-250300-
EAST-CENTRAL ILLINOIS
  
CITY           SKY/WX    TMP DP  RH WIND       PRES   REMARKS
CHAMPAIGN      PTCLDY    44  34  67 W18       29.63R                  
RANTOUL*       MOCLDY    46  39  78 W10       29.62R                  
MATTOON        PTCLDY    44  35  70 W21G28    29.64S                  
PARIS*         MOCLDY    45  40  82 W20       29.65R                  
$$

ILZ079-100>102-250300-
SOUTHWEST ILLINOIS
  
CITY           SKY/WX    TMP DP  RH WIND       PRES   REMARKS
ALTON          CLEAR     43  30  61 SW13      29.72R                  
BELLEVILLE     CLEAR     45  31  57 W8        29.72R                  
CAHOKIA*       MOCLDY    47  28  47 W13G20    29.73R                  
SPARTA*        CLEAR     47  32  56 W15       29.75R                  
$$

ILZ064>066-069>071-074>076-080>082-084>086-088>090-092>094-250300-
SOUTH-CENTRAL ILLINOIS
  
CITY           SKY/WX    TMP DP  RH WIND       PRES   REMARKS
CARBONDALE     CLEAR     51  36  56 W7        29.72R                  
CAIRO*         PTCLDY    55  35  46 W14G20    29.73R                  
EFFINGHAM*     CLEAR     45  39  79 W9        29.69S                  
MARION         PTCLDY    50  45  81 W3        29.72R                  
MT. VERNON     CLEAR     50  37  61 W9G17     29.71R                  
CENTRALIA*     CLEAR     47  36  64 W21       29.71R                  
SALEM*         CLEAR     48  35  60 W21G26    29.70R                  
METROPOLIS*    MOCLDY    59  45  60 CALM      29.71R                  
$$

ILZ067-068-072-073-078-083-087-091-250300-
SOUTHEAST ILLINOIS
  
CITY           SKY/WX    TMP DP  RH WIND       PRES   REMARKS
LAWRENCEVILLE  CLOUDY    51  49  92 W7        29.66R                  
FLORA*         MOCLDY    51  42  70 NW16G22   29.68R                  
FAIRFIELD*     CLOUDY    51  42  71 W6        29.68R                  
HARRISBURG*    MOCLDY    52  46  79 W8        29.69R                  
ROBINSON*      CLOUDY    49  47  90 W8        29.66S                  
CARMI*         MOCLDY    51  48  92 W5        29.67S                  
$$

ABBREVIATIONS USED IN REMARKS
   TC - TEMPERATURE IN CELSIUS
  WCI - WIND CHILL INDEX
   HX - HEAT INDEX
  VSB - VISIBILITY
$$

  

Return to Home page


Western Regional Climate Center, wrcc@dri.edu